Location: Arena
(42.5007°N, 9.4650°E)
Time: 09:23:10
(UTC+00:00)

SJ-6B - Pass Details

Date: 09 April 2020
Orbit: 509 x 582 km, 97.6° (Epoch: 04 June)

Event Time Altitude Azimuth Distance (km) Brightness Sun altitude
Exits shadow 18:39:50 - 147° (SSE) 2,355 5.6 -8.3°
Reaches altitude 10° 18:40:59 10° 143° (SE) 1,891 5.1 -8.5°
Maximum altitude 18:44:53 43° 72° (ENE) 829 3.4 -9.2°
Drops below altitude 10° 18:48:48 10° 1° (N) 1,908 5.8 -9.9°
Sets 18:51:02 0° 355° (N) 2,809 6.8 -10.3°
